Location: Most
(50.5133°N, 13.6207°E)
Time: 01:09:19
(UTC+02:00)

Nauka - Pass Details

Date: 21 September 2021
Orbit: 418 x 423 km, 51.6° (Epoch: 18 October)

Event Time Altitude Azimuth Distance (km) Brightness Sun altitude
Rises 21:37:05 0° 268° (W) 2,364 ? -23.6°
Reaches altitude 10° 21:39:11 10° 271° (W) 1,502 ? -23.9°
Enters shadow 21:41:22 37° 281° (W) 675 ? -24.2°
